This demonstration page uses our WeatherBlox Daily Observations layout. Learn more.

Left ArrowRight Arrow

41.55636, -103.73856

Hourly Observations for October 31, 2021

Temp ( °F °C ) Dew Point ( °F °C ) Humidity (%) Winds ( mph kmh ) Pressure ( in mb ) Visibility ( mi km ) Precip ( " mm )
12:58 am 00:58 Cloudy with Mist and Fog 37 2.8 35 1.7 93 93 NE 8 13 30.23 1024 5 8 0.00 0.00
1:58 am 01:58 Cloudy with Drizzle 36 2.4 35 1.8 96 96 NE 9 15 30.24 1024 3 4 0.00 0.00
2:58 am 02:58 Cloudy with Light Showers 36 2.1 35 1.6 97 97 NE 9 15 30.25 1024 2 3 0.00 0.00
3:58 am 03:58 Cloudy with Drizzle 35 1.5 34 1.1 97 97 NE 12 19 30.27 1025 4 6 0.01 0.25
4:58 am 04:58 Cloudy with Drizzle 34 1.1 33 0.7 97 97 E 7 11 30.29 1026 6 10 0.00 0.00
5:58 am 05:58 Cloudy with Drizzle 34 1.1 33 0.7 97 97 E 7 11 30.31 1027 4 6 0.00 0.00
6:58 am 06:58 Cloudy with Drizzle 33 0.8 33 0.4 97 97 ENE 7 11 30.34 1027 5 8 0.00 0.00
7:58 am 07:58 Cloudy with Light Rain 34 0.9 33 0.6 98 98 E 5 7 30.36 1028 3 5 0.00 0.00
8:58 am 08:58 Cloudy with Mist and Fog 34 1.1 33 0.8 98 98 E 7 11 30.38 1029 4 6 0.00 0.00
9:58 am 09:58 Cloudy with Light Showers 34 1 33 0.7 98 98 E 10 17 30.38 1029 7 11 0.00 0.00
10:58 am 10:58 Cloudy with Light Showers 34 1.3 34 0.9 97 97 E 9 15 30.39 1029 4 6 0.00 0.00
11:58 am 11:58 Cloudy with Light Rain 35 1.7 34 1.2 97 97 E 10 17 30.38 1029 10 16 0.01 0.25
12:58 pm 12:58 Cloudy with Light Rain/Snow 34 1.2 33 0.7 97 97 E 12 19 30.35 1028 5 8 0.01 0.25
1:58 pm 13:58 Mostly Cloudy with Snow 32 -0.1 31 -0.4 98 98 E 10 17 30.34 1027 5 8 0.03 0.76
2:58 pm 14:58 Cloudy with Light Snow 31 -0.4 31 -0.6 99 99 E 14 22 30.33 1027 3 4 0.04 1.02
3:58 pm 15:58 Mostly Cloudy with Light Rain 31 -0.4 31 -0.6 99 99 E 15 24 30.33 1027 4 6 0.02 0.51
4:58 pm 16:58 Mostly Cloudy with Light Snow 31 -0.6 31 -0.8 99 99 E 16 26 30.33 1027 7 11 0.02 0.51
6:58 pm 18:58 Mostly Cloudy with Light Snow 31 -0.8 30 -1 99 99 E 12 19 30.35 1028 6 10 0.01 0.25
7:58 pm 19:58 Cloudy with Light Snow 31 -0.4 31 -0.7 98 98 ESE 13 20 30.35 1028 3 5 0.01 0.25
8:58 pm 20:58 Cloudy with Light Snow 31 -0.6 30 -0.9 98 98 SE 13 20 30.33 1027 2 2 0.02 0.51
9:58 pm 21:58 Cloudy with Light Snow 31 -0.6 30 -1.2 96 96 SE 14 22 30.33 1027 10 16 0.01 0.25
10:58 pm 22:58 Cloudy with Light Snow 31 -0.7 29 -1.4 95 95 ESE 13 20 30.33 1027 3 4 0.01 0.25
11:58 pm 23:58 Cloudy with Light Snow 30 -0.9 29 -1.5 96 96 ESE 13 20 30.32 1027 3 5 0.02 0.51

Powered by AerisWeather